User: anonymous   Login
Location: Asheville, NC
(35.6000°N, 82.5500°W)
Time: 20:32:19
(UTC-04:00)
Language:

Oscar 19 - Orbit

View from above orbital plane
View from above orbital plane
View from above satellite
View from above satellite

Ground track
Ground track

The orbit data is extracted from the following two-line orbital elements,

1 20442U 90005G   18197.88969195 +.00000006 +00000-0 +18334-4 0  9996
2 20442 098.6108 136.2007 0012878 065.0076 295.2444 14.32900082488082
Epoch (UTC): 16 July 2018 21:21:09
Eccentricity: 0.0012878
inclination: 98.6108°
perigee height: 773 km
apogee height: 791 km
right ascension of ascending node: 136.2007°
argument of perigee: 65.0076°
revolutions per day: 14.32900082
mean anomaly at epoch: 295.2444°
orbit number at epoch: 48808

The dashed part of the orbit path shows where the satellite is in the earth's shadow,  

DLR